Kansas Department of Transportation
RWIS(Road and Runway Information System) Map and Weather Data





Station
Surface
Air
Wind
Site IDSensor TypeLocationTemperature (°F)Temperature (°F)Humidity (%)Speed (mi/h)Gusts (mi/h)DirectionTime
123002AtmosphericBonner Springs 277346NJan 27 2021 4:40PM
123002ApproachBonner Springs36     Jan 27 2021 4:40PM
123002DeckBonner Springs32     Jan 27 2021 4:40PM
123014AtmosphericBull Creek 278658NNEJan 27 2021 4:40PM
123014DeckBull Creek32     Jan 27 2021 4:40PM
123014DepartureBull Creek34     Jan 27 2021 4:40PM
123015AtmosphericLeavenworth 277926NNEJan 27 2021 4:40PM
123015DeckLeavenworth36     Jan 27 2021 4:40PM
123015DepartureLeavenworth32     Jan 27 2021 4:40PM
123020AtmosphericMayetta 257411NWJan 27 2021 4:40PM
123020RoadwayMayettaUnavailable     Jan 27 2021 4:40PM
123020DeckMayettaUnavailable     Jan 27 2021 4:40PM
505000AtmosphericKTA 1 36900NEJan 27 2021 4:30PM
505000ApproachKTA 136     Jan 27 2021 4:40PM
505000DeckKTA 139     Jan 27 2021 4:40PM
505001AtmosphericKTA 2 286712NNEJan 27 2021 4:30PM
505001ApproachKTA 234     Jan 27 2021 4:30PM
505001DeckKTA 237     Jan 27 2021 4:30PM
505002AtmosphericKTA 3 259416NNWJan 27 2021 4:30PM
505002ApproachKTA 336     Jan 27 2021 4:30PM
505002DeckKTA 332     Jan 27 2021 4:30PM
505003AtmosphericKTA 4 237967NJan 27 2021 4:30PM
505003ApproachKTA 430     Jan 27 2021 4:30PM
505003DeckKTA 4Unavailable     Jan 27 2021 4:30PM
505004AtmosphericKTA 5 239636SEJan 27 2021 4:30PM
505004RoadwayKTA 532     Jan 27 2021 4:30PM
505004RoadwayKTA 532     Jan 27 2021 4:30PM
505005AtmosphericKTA 6 277147NNWJan 27 2021 4:30PM
505005Approach KTA 636     Jan 27 2021 4:30PM
505005DeckKTA 632     Jan 27 2021 4:30PM
505006AtmosphericKTA 7 279046NWJan 27 2021 4:30PM
505006ApproachKTA 734     Jan 27 2021 4:30PM
505006DeckKTA 730     Jan 27 2021 4:30PM
505007AtmosphericKTA 8 278735NNEJan 27 2021 4:30PM
505007ApproachKTA 837     Jan 27 2021 4:30PM
505007DeckKTA 834     Jan 27 2021 4:30PM
505008AtmosphericKTA 9 287624SWJan 27 2021 4:30PM
505008ApproachKTA 936     Jan 27 2021 4:30PM
505008DeckKTA 934     Jan 27 2021 4:30PM
505009AtmosphericKTA 10 488835NNWJan 27 2021 4:30PM
505009ApproachKTA 1034     Jan 27 2021 4:30PM
505009DeckKTA 1032     Jan 27 2021 4:30PM
505010AtmosphericWebb 257546NWJan 27 2021 4:40PM
505010DeckWebb32     Jan 27 2021 4:40PM
505010NullWebb36     Jan 27 2021 4:40PM
505014AtmosphericI-135 257148NEJan 27 2021 4:45PM
505014ApproachI-13534     Jan 27 2021 4:45PM
505014DeckI-13537     Jan 27 2021 4:45PM
540000AtmosphericBlue Rapids 257244WJan 27 2021 4:40PM
540000DeckBlue Rapids36     Jan 27 2021 4:40PM
540000DepartureBlue RapidsUnavailable     Jan 27 2021 4:40PM
540001AtmosphericSabetha 238024NJan 27 2021 4:40PM
540001ApproachSabethaUnavailable     Jan 27 2021 4:40PM
540001DeckSabethaUnavailable     Jan 27 2021 4:40PM
540002AtmosphericWestgate 277146WNWJan 27 2021 4:40PM
540002DeckWestgate32     Jan 27 2021 4:40PM
540002DepartureWestgateUnavailable     Jan 27 2021 4:40PM
540003AtmosphericEmporia 287514NJan 27 2021 4:40PM
540003ApproachEmporia34     Jan 27 2021 4:40PM
540003DeckEmporia32     Jan 27 2021 4:40PM
540007AtmosphericManhattan 257211NJan 27 2021 4:40PM
540007DepartureManhattan32     Jan 27 2021 4:40PM
540007DeckManhattan34     Jan 27 2021 4:40PM
541003AtmosphericFord 286001EJan 27 2021 4:40PM
541003DeckFordUnavailable     Jan 27 2021 4:40PM
541003DepartureFord39     Jan 27 2021 4:40PM
541004AtmosphericScott 307767SSWJan 27 2021 4:40PM
541004DepartureScott36     Jan 27 2021 4:40PM
541005AtmosphericNess 256234EJan 27 2021 4:40PM
541005DeckNess37     Jan 27 2021 4:40PM
541005DepartureNess39     Jan 27 2021 4:40PM
541007AtmosphericGarden City 257069SSEJan 27 2021 4:40PM
541007ApproachGarden City      Jan 27 2021 4:40PM
541007DeckGarden City37     Jan 27 2021 4:40PM
543000AtmosphericJunction City 257222NNEJan 27 2021 4:40PM
543000ApproachJunction City32     Jan 27 2021 4:40PM
543000DeckJunction City32     Jan 27 2021 4:40PM
543001AtmosphericEllsworth 1981313NJan 27 2021 4:40PM
543001RoadwayEllsworth34     Jan 27 2021 4:40PM
543002AtmosphericMcPherson 217944NEJan 27 2021 4:40PM
543002ApproachMcPherson37     Jan 27 2021 4:40PM
543002DeckMcPherson36     Jan 27 2021 4:40PM
543004AtmosphericConcordia 197525WJan 27 2021 4:40PM
543004ApproachConcordia37     Jan 27 2021 4:40PM
543004DeckConcordiaUnavailable     Jan 27 2021 4:40PM
560000AtmosphericEdson 187967SSEJan 27 2021 4:40PM
560000RoadwayEdson32     Jan 27 2021 4:40PM
560000RoadwayEdson34     Jan 27 2021 4:40PM
560001AtmosphericOakley 187467SSEJan 27 2021 4:40PM
560001ApproachOakley32     Jan 27 2021 4:40PM
560001DeckOakley32     Jan 27 2021 4:40PM
560003AtmosphericJennings 187113SJan 27 2021 4:40PM
560003ApproachJennings36     Jan 27 2021 4:40PM
560003DeckJennings32     Jan 27 2021 4:40PM
560003DeckJennings32     Jan 27 2021 4:40PM
560004AtmosphericWakeeney 187623SEJan 27 2021 4:40PM
560004ApproachWakeeneyUnavailable     Jan 27 2021 4:40PM
560004DeckWakeeney34     Jan 27 2021 4:40PM
560005AtmosphericWalker 216511NNWJan 27 2021 4:40PM
560005ApproachWalker36     Jan 27 2021 4:40PM
560005DeckWalker32     Jan 27 2021 4:40PM
560006AtmosphericBow Creek(Stockton) 215512SJan 27 2021 4:40PM
560006ApproachBow Creek(Stockton)39     Jan 27 2021 4:40PM
560006DeckBow Creek(Stockton)102     Jan 27 2021 4:40PM
560008AtmosphericWallace 256724SJan 27 2021 4:40PM
560008ApproachWallaceUnavailable     Jan 27 2021 4:40PM
560008DeckWallace36     Jan 27 2021 4:40PM
572000AtmosphericGreat Bend 216724NJan 27 2021 4:40PM
572000ApproachGreat BendUnavailable     Jan 27 2021 4:40PM
572000DeckGreat Bend32     Jan 27 2021 4:40PM
572001AtmosphericPratt 285802NJan 27 2021 4:40PM
572001ApproachPratt37     Jan 27 2021 4:40PM
572001DeckPratt37     Jan 27 2021 4:40PM
572002AtmosphericAnthony 326036SJan 27 2021 4:40PM
572002ApproachAnthony118     Jan 27 2021 4:40PM
572002DeckAnthony113     Jan 27 2021 4:40PM
573000AtmosphericEureka 257647NNWJan 27 2021 4:40PM
573000DeckEureka34     Jan 27 2021 4:40PM
573000DepartureEureka30     Jan 27 2021 4:40PM
573001AtmosphericGarnett 277467NNEJan 27 2021 4:40PM
573001ApproachGarnettUnavailable     Jan 27 2021 4:40PM
573001DeckGarnettUnavailable     Jan 27 2021 4:40PM
573003AtmosphericChetopa 307615WNWJan 27 2021 4:40PM
573003DeckChetopa34     Jan 27 2021 4:40PM
573003DeckChetopa34     Jan 27 2021 4:40PM
573003DepartureChetopaUnavailable     Jan 27 2021 4:40PM
573004AtmosphericChanute 307126NNWJan 27 2021 4:40PM
573004ApproachChanute36     Jan 27 2021 4:40PM
573004DeckChanute32     Jan 27 2021 4:40PM